SWA822 KATL-KMIA

Flight info

Callsign SWA822
Flight time 1h 26m
Altitude 37000
Route BANNG3 LUCKK HONID FROGZ5
Aircraft B38M/M-SDE1FGHILORVWXY/HB1

Departure

Time 2026-05-03 22:55
Airport Hartsfield Jackson Atlanta International Airport (KATL)

Arrival

Time 2026-05-04 00:21
Airport Miami International Airport (KMIA)
Time Latitude Longitude Altitude Speed Heading
2026-05-03 22:29 33.63792 -84.43534 1016 ft 0 kts 268°
2026-05-03 22:43 33.63792 -84.43531 1016 ft 2 kts 268°
2026-05-03 22:43 33.63794 -84.43511 1016 ft 2 kts 263°
2026-05-03 22:44 33.63796 -84.43491 1015 ft 2 kts 255°
2026-05-03 22:44 33.63803 -84.43473 1015 ft 2 kts 235°
2026-05-03 22:44 33.63815 -84.43460 1016 ft 2 kts 195°
2026-05-03 22:44 33.63827 -84.43458 1016 ft 1 kts 181°
2026-05-03 22:45 33.63828 -84.43458 1016 ft 0 kts 180°
2026-05-03 22:47 33.63815 -84.43459 1016 ft 4 kts 181°
2026-05-03 22:47 33.63770 -84.43459 1015 ft 9 kts 180°
2026-05-03 22:48 33.63726 -84.43459 1014 ft 6 kts 177°
2026-05-03 22:48 33.63674 -84.43434 1012 ft 10 kts 139°
2026-05-03 22:48 33.63664 -84.43362 1011 ft 10 kts 91°
2026-05-03 22:48 33.63663 -84.43269 1011 ft 12 kts 90°
2026-05-03 22:49 33.63663 -84.43162 1011 ft 14 kts 90°
2026-05-03 22:49 33.63664 -84.43037 1010 ft 17 kts 90°
2026-05-03 22:49 33.63664 -84.42885 1008 ft 19 kts 90°
2026-05-03 22:49 33.63657 -84.42727 1011 ft 18 kts 93°
2026-05-03 22:50 33.63655 -84.42571 1011 ft 20 kts 90°
2026-05-03 22:50 33.63655 -84.42390 1007 ft 23 kts 90°
2026-05-03 22:50 33.63654 -84.42221 1008 ft 20 kts 90°
2026-05-03 22:50 33.63655 -84.42064 1005 ft 20 kts 90°
2026-05-03 22:51 33.63655 -84.41873 998 ft 25 kts 90°
2026-05-03 22:51 33.63655 -84.41677 996 ft 22 kts 91°
2026-05-03 22:51 33.63655 -84.41478 990 ft 23 kts 90°
2026-05-03 22:51 33.63655 -84.41271 990 ft 25 kts 90°
2026-05-03 22:52 33.63656 -84.41065 995 ft 23 kts 89°
2026-05-03 22:52 33.63650 -84.40942 989 ft 7 kts 108°
2026-05-03 22:52 33.63609 -84.40909 995 ft 7 kts 175°
2026-05-03 22:52 33.63570 -84.40909 992 ft 0 kts 179°
2026-05-03 22:53 33.63569 -84.40909 990 ft 1 kts 179°
2026-05-03 22:53 33.63544 -84.40909 996 ft 8 kts 179°
2026-05-03 22:53 33.63480 -84.40917 991 ft 8 kts 219°
2026-05-03 22:53 33.63471 -84.40968 991 ft 0 kts 270°
2026-05-03 22:54 33.63471 -84.40969 991 ft 1 kts 270°
2026-05-03 22:54 33.63471 -84.41087 990 ft 45 kts 270°
2026-05-03 22:55 33.63469 -84.41751 997 ft 114 kts 270°
2026-05-03 22:55 33.63470 -84.42939 1060 ft 165 kts 272°
2026-05-03 22:55 33.63470 -84.44439 1556 ft 187 kts 272°
2026-05-03 22:55 33.63456 -84.45970 2623 ft 181 kts 274°
2026-05-03 22:56 33.63456 -84.47473 3406 ft 186 kts 275°
2026-05-03 22:56 33.63457 -84.49088 4024 ft 200 kts 275°
2026-05-03 22:56 33.63461 -84.50822 4654 ft 215 kts 275°
2026-05-03 22:56 33.63463 -84.52726 5131 ft 242 kts 274°
2026-05-03 22:57 33.63461 -84.54813 5855 ft 255 kts 274°
2026-05-03 22:57 33.63459 -84.56996 6633 ft 267 kts 274°
2026-05-03 22:57 33.63457 -84.59179 7671 ft 265 kts 273°
2026-05-03 22:57 33.63455 -84.61429 8766 ft 265 kts 272°
2026-05-03 22:58 33.63394 -84.63627 9745 ft 268 kts 261°
2026-05-03 22:58 33.62670 -84.65691 10684 ft 274 kts 236°
2026-05-03 22:58 33.61230 -84.67233 11576 ft 283 kts 216°
2026-05-03 22:58 33.59522 -84.68418 12488 ft 285 kts 216°
2026-05-03 22:59 33.57655 -84.69338 13369 ft 298 kts 196°
2026-05-03 22:59 33.55541 -84.69313 14232 ft 313 kts 178°
2026-05-03 22:59 33.53372 -84.68903 14968 ft 316 kts 180°
2026-05-03 22:59 33.51212 -84.68515 15781 ft 318 kts 181°
2026-05-03 23:00 33.49016 -84.68112 16587 ft 320 kts 182°
2026-05-03 23:00 33.46815 -84.67701 17385 ft 322 kts 183°
2026-05-03 23:00 33.44594 -84.67285 18173 ft 323 kts 184°
2026-05-03 23:00 33.42362 -84.66833 18821 ft 333 kts 179°
2026-05-03 23:01 33.40073 -84.65766 19148 ft 364 kts 167°
2026-05-03 23:01 33.38528 -84.64921 19291 ft 373 kts 168°
2026-05-03 23:01 33.35310 -84.63185 19693 ft 389 kts 168°
2026-05-03 23:01 33.32803 -84.61831 19953 ft 402 kts 168°
2026-05-03 23:02 33.31090 -84.60906 20347 ft 403 kts 168°
2026-05-03 23:02 33.28550 -84.59534 21073 ft 402 kts 169°
2026-05-03 23:02 33.26055 -84.58192 21620 ft 405 kts 169°
2026-05-03 23:02 33.23465 -84.56798 22194 ft 408 kts 169°
2026-05-03 23:03 33.20859 -84.55397 22792 ft 410 kts 169°
2026-05-03 23:03 33.18250 -84.53995 23352 ft 412 kts 169°
2026-05-03 23:03 33.15622 -84.52583 23864 ft 415 kts 169°
2026-05-03 23:03 33.13023 -84.51187 24298 ft 417 kts 169°
2026-05-03 23:04 33.10366 -84.49761 24724 ft 420 kts 169°
2026-05-03 23:04 33.07738 -84.48352 25133 ft 423 kts 169°
2026-05-03 23:04 33.05032 -84.46903 25566 ft 426 kts 169°
2026-05-03 23:04 33.02318 -84.45450 25980 ft 429 kts 169°
2026-05-03 23:05 32.99590 -84.43991 26394 ft 432 kts 169°
2026-05-03 23:05 32.96819 -84.42697 26776 ft 418 kts 180°
2026-05-03 23:05 32.94342 -84.42307 26983 ft 403 kts 190°
2026-05-03 23:05 32.91687 -84.42176 27270 ft 408 kts 190°
2026-05-03 23:06 32.88898 -84.42054 27736 ft 407 kts 191°
2026-05-03 23:06 32.86051 -84.41962 28062 ft 410 kts 191°
2026-05-03 23:06 32.83173 -84.41886 28450 ft 412 kts 191°
2026-05-03 23:06 32.80291 -84.41821 28789 ft 415 kts 191°
2026-05-03 23:07 32.77383 -84.41761 29175 ft 417 kts 191°
2026-05-03 23:07 32.74472 -84.41702 29532 ft 420 kts 191°
2026-05-03 23:07 32.71579 -84.41643 29881 ft 422 kts 191°
2026-05-03 23:07 32.68621 -84.41583 30210 ft 425 kts 190°
2026-05-03 23:08 32.65644 -84.41524 30527 ft 427 kts 190°
2026-05-03 23:08 32.62659 -84.41464 30831 ft 429 kts 190°
2026-05-03 23:08 32.59709 -84.41405 31128 ft 431 kts 190°
2026-05-03 23:08 32.56687 -84.41344 31426 ft 433 kts 190°
2026-05-03 23:09 32.53673 -84.41283 31840 ft 431 kts 190°
2026-05-03 23:09 32.50677 -84.41223 32287 ft 430 kts 190°
2026-05-03 23:09 32.47711 -84.41163 32708 ft 428 kts 191°
2026-05-03 23:09 32.44731 -84.41104 33095 ft 428 kts 191°
2026-05-03 23:10 32.41761 -84.41044 33497 ft 427 kts 191°
2026-05-03 23:10 32.38789 -84.40985 33918 ft 426 kts 191°
2026-05-03 23:10 32.35816 -84.40926 34288 ft 425 kts 191°
2026-05-03 23:10 32.32993 -84.40869 34592 ft 424 kts 191°
2026-05-03 23:11 32.30060 -84.40811 34892 ft 424 kts 191°
2026-05-03 23:11 32.27109 -84.40752 35199 ft 423 kts 191°
2026-05-03 23:11 32.24160 -84.40693 35510 ft 422 kts 191°
2026-05-03 23:11 32.21221 -84.40635 35802 ft 422 kts 191°
2026-05-03 23:12 32.18283 -84.40576 36102 ft 421 kts 191°
2026-05-03 23:12 32.15355 -84.40518 36397 ft 420 kts 191°
2026-05-03 23:12 32.12466 -84.40460 36671 ft 420 kts 191°
2026-05-03 23:12 32.09533 -84.40402 36923 ft 420 kts 191°
2026-05-03 23:13 32.06609 -84.40344 37079 ft 420 kts 191°
2026-05-03 23:13 32.00811 -84.40229 37097 ft 418 kts 191°
2026-05-03 23:14 31.94983 -84.40114 37095 ft 417 kts 191°
2026-05-03 23:14 31.89206 -84.39999 37101 ft 417 kts 191°
2026-05-03 23:15 31.83386 -84.39884 37105 ft 417 kts 191°
2026-05-03 23:15 31.77591 -84.39770 37113 ft 417 kts 191°
2026-05-03 23:16 31.71784 -84.39655 37110 ft 417 kts 191°
2026-05-03 23:16 31.65975 -84.39538 37117 ft 418 kts 190°
2026-05-03 23:16 31.63017 -84.39056 37130 ft 437 kts 179°
2026-05-03 23:17 31.60051 -84.38299 37095 ft 435 kts 181°
2026-05-03 23:17 31.54112 -84.36822 37116 ft 437 kts 181°
2026-05-03 23:18 31.48192 -84.35326 37117 ft 437 kts 180°
2026-05-03 23:18 31.42223 -84.33818 37114 ft 437 kts 180°
2026-05-03 23:19 31.36299 -84.32322 37104 ft 437 kts 181°
2026-05-03 23:19 31.30314 -84.30813 37106 ft 438 kts 180°
2026-05-03 23:20 31.24380 -84.29320 37100 ft 438 kts 181°
2026-05-03 23:20 31.18432 -84.27824 37105 ft 438 kts 180°
2026-05-03 23:21 31.12479 -84.26329 37102 ft 438 kts 181°
2026-05-03 23:21 31.06505 -84.24831 37109 ft 438 kts 181°
2026-05-03 23:22 30.97544 -84.22587 37118 ft 439 kts 180°
2026-05-03 23:22 30.91586 -84.21097 37121 ft 439 kts 181°
2026-05-03 23:23 30.85606 -84.19604 37122 ft 439 kts 180°
2026-05-03 23:23 30.82655 -84.18869 37303 ft 439 kts 179°
2026-05-03 23:23 30.79657 -84.18121 37143 ft 438 kts 179°
2026-05-03 23:24 30.73693 -84.16635 37116 ft 439 kts 179°
2026-05-03 23:24 30.67756 -84.15158 37111 ft 438 kts 179°
2026-05-03 23:25 30.62479 -84.13846 37112 ft 438 kts 179°
2026-05-03 23:25 30.56541 -84.12373 37105 ft 438 kts 179°
2026-05-03 23:26 30.50561 -84.10890 37105 ft 438 kts 179°
2026-05-03 23:26 30.44590 -84.09412 37098 ft 438 kts 179°
2026-05-03 23:27 30.38730 -84.07932 37095 ft 442 kts 175°
2026-05-03 23:27 30.35825 -84.06497 37102 ft 464 kts 161°
2026-05-03 23:27 30.32999 -84.04652 37088 ft 465 kts 162°
2026-05-03 23:28 30.27373 -84.00980 37102 ft 466 kts 162°
2026-05-03 23:28 30.21962 -83.97399 37100 ft 467 kts 162°
2026-05-03 23:29 30.16326 -83.93667 37099 ft 466 kts 162°
2026-05-03 23:29 30.10674 -83.89928 37098 ft 466 kts 162°
2026-05-03 23:30 30.05082 -83.86234 37096 ft 466 kts 162°
2026-05-03 23:30 29.99425 -83.82501 37096 ft 466 kts 162°
2026-05-03 23:31 29.93810 -83.78802 37095 ft 466 kts 162°
2026-05-03 23:31 29.88605 -83.75377 37093 ft 465 kts 163°
2026-05-03 23:32 29.82568 -83.71408 37093 ft 465 kts 163°
2026-05-03 23:32 29.76926 -83.67706 37094 ft 465 kts 163°
2026-05-03 23:33 29.71323 -83.64034 37089 ft 465 kts 163°
2026-05-03 23:33 29.65679 -83.60340 37093 ft 465 kts 163°
2026-05-03 23:34 29.60048 -83.56659 37088 ft 465 kts 163°
2026-05-03 23:34 29.54441 -83.52998 37082 ft 465 kts 163°
2026-05-03 23:35 29.48791 -83.49314 37094 ft 465 kts 163°
2026-05-03 23:35 29.43165 -83.45650 37086 ft 465 kts 163°
2026-05-03 23:36 29.37558 -83.42004 37086 ft 465 kts 164°
2026-05-03 23:36 29.31917 -83.38339 37083 ft 465 kts 164°
2026-05-03 23:37 29.26419 -83.34780 37085 ft 462 kts 166°
2026-05-03 23:37 29.20608 -83.31709 37079 ft 454 kts 169°
2026-05-03 23:38 29.14834 -83.28770 37084 ft 453 kts 170°
2026-05-03 23:38 29.09066 -83.25844 37075 ft 452 kts 170°
2026-05-03 23:39 29.03336 -83.22943 37077 ft 452 kts 170°
2026-05-03 23:39 28.97573 -83.20028 37077 ft 451 kts 170°
2026-05-03 23:40 28.91853 -83.17139 37075 ft 451 kts 170°
2026-05-03 23:40 28.86106 -83.14239 37075 ft 450 kts 170°
2026-05-03 23:41 28.80399 -83.11363 37073 ft 450 kts 170°
2026-05-03 23:41 28.74646 -83.08468 37075 ft 450 kts 171°
2026-05-03 23:42 28.68936 -83.05597 37076 ft 450 kts 171°
2026-05-03 23:42 28.63221 -83.02727 37069 ft 450 kts 171°
2026-05-03 23:43 28.57479 -82.99847 37069 ft 449 kts 171°
2026-05-03 23:43 28.51756 -82.96981 37068 ft 449 kts 171°
2026-05-03 23:44 28.46071 -82.94137 37069 ft 449 kts 171°
2026-05-03 23:44 28.40813 -82.91509 37067 ft 450 kts 171°
2026-05-03 23:45 28.35103 -82.88659 37063 ft 450 kts 171°
2026-05-03 23:45 28.29699 -82.85964 37060 ft 450 kts 171°
2026-05-03 23:46 28.24915 -82.83582 37057 ft 450 kts 171°
2026-05-03 23:46 28.19101 -82.80688 37053 ft 451 kts 171°
2026-05-03 23:47 28.13524 -82.77917 37052 ft 451 kts 171°
2026-05-03 23:47 28.07767 -82.75058 37046 ft 451 kts 171°
2026-05-03 23:48 28.02017 -82.72232 37038 ft 446 kts 174°
2026-05-03 23:48 27.99972 -82.71595 37054 ft 423 kts 185°
2026-05-03 23:48 27.96195 -82.70831 37029 ft 426 kts 183°
2026-05-03 23:49 27.90474 -82.69651 37042 ft 426 kts 184°
2026-05-03 23:49 27.84552 -82.68475 37045 ft 426 kts 184°
2026-05-03 23:50 27.78741 -82.67328 37031 ft 427 kts 184°
2026-05-03 23:50 27.72875 -82.66173 37028 ft 427 kts 184°
2026-05-03 23:51 27.67048 -82.65028 37031 ft 427 kts 184°
2026-05-03 23:51 27.61272 -82.63892 37034 ft 428 kts 184°
2026-05-03 23:52 27.55433 -82.62746 37047 ft 429 kts 184°
2026-05-03 23:52 27.49522 -82.61120 37047 ft 439 kts 178°
2026-05-03 23:53 27.46566 -82.60236 37051 ft 438 kts 179°
2026-05-03 23:54 27.32466 -82.56123 37045 ft 439 kts 179°
2026-05-03 23:54 27.25689 -82.54156 37048 ft 440 kts 178°
2026-05-03 23:55 27.19759 -82.52436 37050 ft 440 kts 178°
2026-05-03 23:55 27.13841 -82.50720 37053 ft 440 kts 178°
2026-05-03 23:56 27.07899 -82.49001 37048 ft 440 kts 178°
2026-05-03 23:56 27.01978 -82.47289 37047 ft 441 kts 178°
2026-05-03 23:57 26.96026 -82.45570 37050 ft 441 kts 178°
2026-05-03 23:57 26.93057 -82.44591 37037 ft 453 kts 169°
2026-05-03 23:57 26.90282 -82.42831 37054 ft 478 kts 154°
2026-05-03 23:58 26.85171 -82.38118 37047 ft 486 kts 152°
2026-05-03 23:58 26.80002 -82.33205 37041 ft 487 kts 151°
2026-05-03 23:59 26.74906 -82.28326 37040 ft 487 kts 151°
2026-05-03 23:59 26.69735 -82.23378 37045 ft 487 kts 151°
2026-05-04 00:00 26.64589 -82.18460 37044 ft 487 kts 151°
2026-05-04 00:00 26.59474 -82.13576 36528 ft 484 kts 150°
2026-05-04 00:01 26.56909 -82.11130 35920 ft 482 kts 150°
2026-05-04 00:01 26.54357 -82.08697 35211 ft 483 kts 150°
2026-05-04 00:01 26.51837 -82.06185 34439 ft 489 kts 148°
2026-05-04 00:01 26.49310 -82.03624 33614 ft 492 kts 148°
2026-05-04 00:02 26.46827 -82.01122 32903 ft 491 kts 148°
2026-05-04 00:02 26.44288 -81.98572 32304 ft 488 kts 147°
2026-05-04 00:02 26.41769 -81.96043 31707 ft 485 kts 147°
2026-05-04 00:02 26.39322 -81.93589 31097 ft 483 kts 147°
2026-05-04 00:03 26.36926 -81.91187 30513 ft 482 kts 147°
2026-05-04 00:03 26.35246 -81.89504 30116 ft 481 kts 146°
2026-05-04 00:03 26.32033 -81.86287 29213 ft 478 kts 146°
2026-05-04 00:03 26.29564 -81.83818 28604 ft 474 kts 146°
2026-05-04 00:04 26.27912 -81.82165 28329 ft 469 kts 146°
2026-05-04 00:04 26.25557 -81.79803 28126 ft 458 kts 145°
2026-05-04 00:04 26.23451 -81.77043 27343 ft 476 kts 128°
2026-05-04 00:04 26.21933 -81.73746 26759 ft 479 kts 122°
2026-05-04 00:05 26.20466 -81.70432 26131 ft 477 kts 122°
2026-05-04 00:05 26.18998 -81.67090 25397 ft 479 kts 122°
2026-05-04 00:05 26.17538 -81.63741 24657 ft 481 kts 121°
2026-05-04 00:05 26.16168 -81.60595 23981 ft 481 kts 121°
2026-05-04 00:06 26.14828 -81.57522 23272 ft 482 kts 121°
2026-05-04 00:06 26.13361 -81.54153 22475 ft 481 kts 121°
2026-05-04 00:06 26.11901 -81.50807 21766 ft 478 kts 121°
2026-05-04 00:06 26.10449 -81.47480 21049 ft 475 kts 121°
2026-05-04 00:07 26.09005 -81.44176 20339 ft 473 kts 120°
2026-05-04 00:07 26.07570 -81.40894 19632 ft 470 kts 120°
2026-05-04 00:07 26.06622 -81.38719 19092 ft 471 kts 120°
2026-05-04 00:07 26.04771 -81.34466 18146 ft 468 kts 120°
2026-05-04 00:08 26.03346 -81.31195 17374 ft 464 kts 120°
2026-05-04 00:08 26.02061 -81.28250 16735 ft 460 kts 120°
2026-05-04 00:08 26.00671 -81.25066 16070 ft 450 kts 119°
2026-05-04 00:08 25.99497 -81.22379 15527 ft 433 kts 119°
2026-05-04 00:09 25.98213 -81.19442 14884 ft 418 kts 119°
2026-05-04 00:09 25.96963 -81.16582 14255 ft 405 kts 119°
2026-05-04 00:09 25.95460 -81.13148 13468 ft 390 kts 119°
2026-05-04 00:09 25.94289 -81.10476 12794 ft 379 kts 119°
2026-05-04 00:10 25.93151 -81.07878 12250 ft 367 kts 119°
2026-05-04 00:10 25.92052 -81.05372 11732 ft 355 kts 119°
2026-05-04 00:10 25.91027 -81.02921 11191 ft 346 kts 116°
2026-05-04 00:10 25.90086 -81.00481 10636 ft 338 kts 116°
2026-05-04 00:11 25.89169 -80.98113 10145 ft 330 kts 115°
2026-05-04 00:11 25.88281 -80.95782 9580 ft 324 kts 115°
2026-05-04 00:11 25.87410 -80.93509 9092 ft 315 kts 115°
2026-05-04 00:11 25.86579 -80.91342 8789 ft 301 kts 115°
2026-05-04 00:12 25.85779 -80.89261 8525 ft 291 kts 115°
2026-05-04 00:12 25.84975 -80.87167 8222 ft 293 kts 116°
2026-05-04 00:12 25.84196 -80.85137 7978 ft 287 kts 115°
2026-05-04 00:12 25.83485 -80.83292 7717 ft 290 kts 115°
2026-05-04 00:13 25.82915 -80.81812 7526 ft 290 kts 115°
2026-05-04 00:13 25.82111 -80.79724 7257 ft 289 kts 115°
2026-05-04 00:13 25.81602 -80.78401 7077 ft 288 kts 115°
2026-05-04 00:13 25.80542 -80.75652 6675 ft 287 kts 116°
2026-05-04 00:14 25.80012 -80.74278 6470 ft 285 kts 115°
2026-05-04 00:14 25.78990 -80.71626 6095 ft 279 kts 115°
2026-05-04 00:14 25.78484 -80.70313 5906 ft 276 kts 115°
2026-05-04 00:14 25.77728 -80.68357 5645 ft 271 kts 115°
2026-05-04 00:15 25.77141 -80.65787 5267 ft 263 kts 89°
2026-05-04 00:15 25.77249 -80.63784 5017 ft 254 kts 86°
2026-05-04 00:15 25.77318 -80.62488 4866 ft 250 kts 87°
2026-05-04 00:15 25.77406 -80.60556 4609 ft 247 kts 88°
2026-05-04 00:16 25.77485 -80.58679 4367 ft 243 kts 88°
2026-05-04 00:16 25.77563 -80.56817 4126 ft 239 kts 88°
2026-05-04 00:16 25.77638 -80.55007 3893 ft 233 kts 87°
2026-05-04 00:16 25.77712 -80.53217 3613 ft 231 kts 88°
2026-05-04 00:17 25.77786 -80.51439 3332 ft 229 kts 87°
2026-05-04 00:17 25.77858 -80.49704 3097 ft 217 kts 87°
2026-05-04 00:17 25.77922 -80.48161 2875 ft 204 kts 87°
2026-05-04 00:17 25.77985 -80.46623 2658 ft 193 kts 87°
2026-05-04 00:18 25.78044 -80.45182 2429 ft 178 kts 87°
2026-05-04 00:18 25.78098 -80.43893 2237 ft 158 kts 87°
2026-05-04 00:18 25.78145 -80.42739 2040 ft 144 kts 86°
2026-05-04 00:18 25.78192 -80.41619 1853 ft 144 kts 86°
2026-05-04 00:19 25.78236 -80.40520 1670 ft 143 kts 86°
2026-05-04 00:19 25.78282 -80.39428 1478 ft 142 kts 86°
2026-05-04 00:19 25.78327 -80.38324 1291 ft 142 kts 86°
2026-05-04 00:19 25.78373 -80.37222 1098 ft 142 kts 86°
2026-05-04 00:20 25.78418 -80.36140 925 ft 141 kts 86°
2026-05-04 00:20 25.78463 -80.35064 748 ft 139 kts 87°
2026-05-04 00:20 25.78506 -80.33999 578 ft 136 kts 87°
2026-05-04 00:20 25.78549 -80.32955 391 ft 133 kts 88°
2026-05-04 00:21 25.78592 -80.31944 210 ft 132 kts 87°
2026-05-04 00:21 25.78638 -80.30923 47 ft 131 kts 88°
2026-05-04 00:21 25.78670 -80.29999 18 ft 110 kts 89°
2026-05-04 00:21 25.78691 -80.29475 18 ft 35 kts 86°
2026-05-04 00:22 25.78737 -80.29231 21 ft 25 kts 57°
2026-05-04 00:22 25.78812 -80.29122 19 ft 19 kts 70°
2026-05-04 00:22 25.78830 -80.28972 21 ft 21 kts 84°
2026-05-04 00:22 25.78864 -80.28845 18 ft 18 kts 83°
2026-05-04 00:23 25.78870 -80.28691 19 ft 21 kts 85°
2026-05-04 00:23 25.78877 -80.28521 21 ft 23 kts 88°
2026-05-04 00:23 25.78883 -80.28385 22 ft 0 kts 87°
2026-05-04 00:24 25.78883 -80.28382 22 ft 3 kts 87°
2026-05-04 00:24 25.78886 -80.28303 23 ft 18 kts 87°
2026-05-04 00:24 25.78897 -80.28134 25 ft 22 kts 84°
2026-05-04 00:25 25.78929 -80.28003 28 ft 14 kts 33°
2026-05-04 00:25 25.78991 -80.28036 26 ft 10 kts 303°
2026-05-04 00:25 25.79057 -80.28080 29 ft 14 kts 10°
2026-05-04 00:25 25.79155 -80.28029 28 ft 11 kts 31°
2026-05-04 00:26 25.79163 -80.27982 24 ft 7 kts 117°
2026-05-04 00:26 25.79151 -80.27958 26 ft 0 kts 118°